NOO6334 RJFF-RJFK

Flight info

Callsign NOO6334
Flight time 0h 40m
Altitude 15000
Route YAMGA KUE/N0318F140 ESLIL HIGOH KGE
Aircraft DH8D/M-SDE2E3FGRY/H

Departure

Time 2026-04-21 02:08
Airport Fukuoka Airport (RJFF)

Arrival

Time 2026-04-21 02:49
Airport Kagoshima Airport (RJFK)
Time Latitude Longitude Altitude Speed Heading
2026-04-21 01:55 33.58962 130.45148 44 ft 0 kts 59°
2026-04-21 02:01 33.58963 130.45152 44 ft 1 kts 72°
2026-04-21 02:01 33.58955 130.45160 44 ft 2 kts 196°
2026-04-21 02:01 33.58939 130.45131 44 ft 6 kts 243°
2026-04-21 02:01 33.58921 130.45076 44 ft 7 kts 301°
2026-04-21 02:02 33.58971 130.45039 44 ft 9 kts 330°
2026-04-21 02:02 33.59028 130.45000 44 ft 10 kts 330°
2026-04-21 02:02 33.59096 130.44954 44 ft 11 kts 330°
2026-04-21 02:02 33.59176 130.44900 44 ft 13 kts 329°
2026-04-21 02:03 33.59257 130.44842 44 ft 13 kts 329°
2026-04-21 02:03 33.59336 130.44789 44 ft 12 kts 330°
2026-04-21 02:03 33.59412 130.44737 44 ft 12 kts 329°
2026-04-21 02:03 33.59489 130.44684 44 ft 13 kts 330°
2026-04-21 02:04 33.59573 130.44627 44 ft 14 kts 329°
2026-04-21 02:04 33.59657 130.44569 44 ft 13 kts 330°
2026-04-21 02:04 33.59741 130.44507 44 ft 13 kts 306°
2026-04-21 02:04 33.59734 130.44434 44 ft 4 kts 239°
2026-04-21 02:05 33.59729 130.44423 44 ft 0 kts 239°
2026-04-21 02:06 33.59728 130.44421 44 ft 1 kts 239°
2026-04-21 02:06 33.59714 130.44392 44 ft 7 kts 239°
2026-04-21 02:06 33.59687 130.44338 45 ft 7 kts 239°
2026-04-21 02:06 33.59668 130.44334 45 ft 0 kts 147°
2026-04-21 02:07 33.59568 130.44405 45 ft 58 kts 149°
2026-04-21 02:07 33.58970 130.44812 45 ft 134 kts 148°
2026-04-21 02:08 33.58006 130.45458 161 ft 169 kts 148°
2026-04-21 02:08 33.56983 130.46109 743 ft 172 kts 148°
2026-04-21 02:08 33.55886 130.46745 1349 ft 179 kts 150°
2026-04-21 02:08 33.54731 130.47342 1949 ft 185 kts 151°
2026-04-21 02:09 33.53533 130.47931 2538 ft 186 kts 152°
2026-04-21 02:09 33.52292 130.48511 2922 ft 202 kts 153°
2026-04-21 02:09 33.50938 130.49124 3338 ft 211 kts 153°
2026-04-21 02:09 33.49636 130.49925 3846 ft 211 kts 141°
2026-04-21 02:10 33.48385 130.50890 4363 ft 216 kts 142°
2026-04-21 02:10 33.47109 130.51825 4925 ft 218 kts 143°
2026-04-21 02:10 33.45797 130.52751 5441 ft 222 kts 144°
2026-04-21 02:10 33.44433 130.53680 5938 ft 227 kts 145°
2026-04-21 02:11 33.43049 130.54602 6454 ft 231 kts 146°
2026-04-21 02:11 33.41632 130.55527 7002 ft 232 kts 147°
2026-04-21 02:11 33.40214 130.56439 7520 ft 236 kts 148°
2026-04-21 02:11 33.38776 130.57358 8073 ft 236 kts 149°
2026-04-21 02:12 33.37314 130.58285 8570 ft 238 kts 150°
2026-04-21 02:12 33.35834 130.59218 9037 ft 242 kts 150°
2026-04-21 02:12 33.34347 130.60153 9592 ft 242 kts 152°
2026-04-21 02:12 33.32912 130.61052 10001 ft 247 kts 153°
2026-04-21 02:13 33.31386 130.62006 10504 ft 249 kts 154°
2026-04-21 02:13 33.29843 130.62967 10929 ft 253 kts 154°
2026-04-21 02:13 33.28278 130.63942 11422 ft 252 kts 156°
2026-04-21 02:13 33.26724 130.64909 11841 ft 255 kts 156°
2026-04-21 02:14 33.25142 130.65889 12248 ft 258 kts 158°
2026-04-21 02:14 33.23528 130.66885 12609 ft 263 kts 159°
2026-04-21 02:14 33.21912 130.67886 13040 ft 262 kts 160°
2026-04-21 02:14 33.20290 130.68889 13367 ft 266 kts 160°
2026-04-21 02:15 33.18648 130.69905 13775 ft 264 kts 161°
2026-04-21 02:15 33.17016 130.70914 14078 ft 270 kts 160°
2026-04-21 02:15 33.15348 130.71945 14493 ft 268 kts 160°
2026-04-21 02:15 33.13684 130.72974 14791 ft 271 kts 161°
2026-04-21 02:16 33.11981 130.74020 14922 ft 283 kts 161°
2026-04-21 02:16 33.10184 130.75085 14984 ft 293 kts 165°
2026-04-21 02:16 33.08226 130.75862 15004 ft 301 kts 173°
2026-04-21 02:16 33.06159 130.76541 14997 ft 314 kts 173°
2026-04-21 02:17 33.04023 130.77245 15011 ft 324 kts 172°
2026-04-21 02:17 33.01821 130.77974 15003 ft 329 kts 172°
2026-04-21 02:17 32.99610 130.78716 14998 ft 327 kts 171°
2026-04-21 02:17 32.97414 130.79457 15019 ft 323 kts 171°
2026-04-21 02:18 32.95271 130.80180 15074 ft 321 kts 172°
2026-04-21 02:18 32.93115 130.80902 15099 ft 323 kts 172°
2026-04-21 02:18 32.90953 130.81622 15106 ft 327 kts 172°
2026-04-21 02:18 32.88746 130.82359 15110 ft 330 kts 172°
2026-04-21 02:19 32.86521 130.83102 15108 ft 332 kts 171°
2026-04-21 02:19 32.84288 130.83846 15103 ft 334 kts 172°
2026-04-21 02:19 32.82016 130.84303 15107 ft 327 kts 182°
2026-04-21 02:19 32.79733 130.84500 15107 ft 328 kts 183°
2026-04-21 02:20 32.77457 130.84683 15110 ft 329 kts 184°
2026-04-21 02:20 32.75153 130.84871 15103 ft 330 kts 184°
2026-04-21 02:20 32.72857 130.85059 15106 ft 331 kts 184°
2026-04-21 02:20 32.70573 130.85249 15102 ft 332 kts 184°
2026-04-21 02:21 32.68251 130.85445 15102 ft 332 kts 183°
2026-04-21 02:21 32.65946 130.85640 15108 ft 333 kts 184°
2026-04-21 02:21 32.63634 130.85837 15113 ft 333 kts 183°
2026-04-21 02:21 32.61318 130.86034 15103 ft 334 kts 183°
2026-04-21 02:22 32.58993 130.86232 15101 ft 334 kts 184°
2026-04-21 02:22 32.56676 130.86430 15103 ft 334 kts 183°
2026-04-21 02:22 32.54362 130.86627 15099 ft 334 kts 183°
2026-04-21 02:22 32.52038 130.86827 15104 ft 334 kts 183°
2026-04-21 02:23 32.49691 130.87027 15103 ft 334 kts 183°
2026-04-21 02:23 32.47372 130.87225 15099 ft 334 kts 183°
2026-04-21 02:23 32.45073 130.87422 15092 ft 333 kts 183°
2026-04-21 02:23 32.42758 130.87620 15086 ft 333 kts 183°
2026-04-21 02:24 32.40421 130.87820 15080 ft 332 kts 183°
2026-04-21 02:24 32.38141 130.88016 15083 ft 332 kts 183°
2026-04-21 02:24 32.35834 130.88213 15079 ft 331 kts 183°
2026-04-21 02:24 32.33556 130.88411 15027 ft 323 kts 183°
2026-04-21 02:25 32.31332 130.88608 14678 ft 320 kts 183°
2026-04-21 02:25 32.29096 130.88802 14297 ft 318 kts 183°
2026-04-21 02:25 32.26906 130.88991 13913 ft 317 kts 183°
2026-04-21 02:25 32.24707 130.89180 13580 ft 314 kts 182°
2026-04-21 02:26 32.22541 130.89366 13261 ft 311 kts 182°
2026-04-21 02:26 32.20400 130.89496 12938 ft 306 kts 188°
2026-04-21 02:26 32.18411 130.88864 12606 ft 289 kts 212°
2026-04-21 02:26 32.16631 130.87769 12294 ft 286 kts 214°
2026-04-21 02:27 32.14897 130.86675 11985 ft 285 kts 214°
2026-04-21 02:27 32.13145 130.85562 11672 ft 284 kts 214°
2026-04-21 02:27 32.11418 130.84468 11354 ft 284 kts 214°
2026-04-21 02:27 32.09658 130.83353 11031 ft 284 kts 214°
2026-04-21 02:28 32.07938 130.82266 10729 ft 284 kts 213°
2026-04-21 02:28 32.06185 130.81157 10432 ft 286 kts 213°
2026-04-21 02:28 32.04411 130.80032 10176 ft 290 kts 213°
2026-04-21 02:28 32.02629 130.78906 9917 ft 293 kts 212°
2026-04-21 02:29 32.00815 130.77762 9650 ft 294 kts 212°
2026-04-21 02:29 31.99031 130.76642 9380 ft 291 kts 212°
2026-04-21 02:29 31.97242 130.75519 9114 ft 288 kts 212°
2026-04-21 02:29 31.95500 130.74426 8848 ft 286 kts 211°
2026-04-21 02:30 31.93747 130.73326 8578 ft 284 kts 211°
2026-04-21 02:30 31.92004 130.72231 8300 ft 283 kts 211°
2026-04-21 02:30 31.90253 130.71133 8031 ft 282 kts 210°
2026-04-21 02:30 31.88535 130.70055 7763 ft 281 kts 210°
2026-04-21 02:31 31.86806 130.68970 7493 ft 280 kts 210°
2026-04-21 02:31 31.85069 130.67882 7223 ft 280 kts 210°
2026-04-21 02:31 31.83369 130.66817 6956 ft 279 kts 209°
2026-04-21 02:31 31.81641 130.65735 6686 ft 279 kts 209°
2026-04-21 02:32 31.79951 130.64677 6410 ft 270 kts 208°
2026-04-21 02:32 31.78319 130.63664 6125 ft 259 kts 208°
2026-04-21 02:32 31.76764 130.62694 5849 ft 248 kts 208°
2026-04-21 02:32 31.75274 130.61766 5562 ft 238 kts 208°
2026-04-21 02:33 31.73837 130.60870 5272 ft 227 kts 208°
2026-04-21 02:33 31.72480 130.60023 5092 ft 215 kts 207°
2026-04-21 02:33 31.71169 130.59198 5031 ft 215 kts 208°
2026-04-21 02:33 31.69852 130.58368 5000 ft 213 kts 208°
2026-04-21 02:34 31.68576 130.57455 4987 ft 214 kts 221°
2026-04-21 02:34 31.67543 130.56190 4989 ft 214 kts 231°
2026-04-21 02:34 31.66593 130.54860 4987 ft 215 kts 232°
2026-04-21 02:34 31.65631 130.53485 4983 ft 217 kts 234°
2026-04-21 02:35 31.65052 130.51891 4958 ft 210 kts 274°
2026-04-21 02:35 31.65541 130.50409 4968 ft 195 kts 322°
2026-04-21 02:35 31.66738 130.49907 4978 ft 185 kts 12°
2026-04-21 02:35 31.67819 130.50725 4992 ft 199 kts 58°
2026-04-21 02:36 31.68070 130.52387 5011 ft 221 kts 94°
2026-04-21 02:36 31.67880 130.54176 4980 ft 217 kts 88°
2026-04-21 02:36 31.68287 130.55772 4977 ft 201 kts 56°
2026-04-21 02:36 31.69107 130.57092 4977 ft 197 kts 52°
2026-04-21 02:37 31.69953 130.58333 4968 ft 192 kts 45°
2026-04-21 02:37 31.71060 130.59139 4963 ft 186 kts 16°
2026-04-21 02:37 31.72327 130.59132 4963 ft 183 kts 346°
2026-04-21 02:37 31.73406 130.58362 4973 ft 186 kts 316°
2026-04-21 02:38 31.74015 130.57001 4981 ft 193 kts 284°
2026-04-21 02:38 31.73910 130.55431 4983 ft 198 kts 250°
2026-04-21 02:38 31.73132 130.54065 5004 ft 204 kts 231°
2026-04-21 02:38 31.72217 130.52783 5004 ft 210 kts 232°
2026-04-21 02:39 31.71285 130.51463 4985 ft 208 kts 232°
2026-04-21 02:39 31.70353 130.50151 4977 ft 205 kts 231°
2026-04-21 02:39 31.69315 130.49051 4965 ft 202 kts 208°
2026-04-21 02:39 31.67989 130.48695 4967 ft 192 kts 173°
2026-04-21 02:40 31.66772 130.49178 4968 ft 180 kts 141°
2026-04-21 02:40 31.65975 130.50215 4966 ft 166 kts 112°
2026-04-21 02:40 31.65695 130.51471 4960 ft 154 kts 86°
2026-04-21 02:40 31.65889 130.52663 4966 ft 147 kts 64°
2026-04-21 02:41 31.66459 130.53713 4998 ft 161 kts 51°
2026-04-21 02:41 31.67206 130.54800 5002 ft 180 kts 50°
2026-04-21 02:41 31.68024 130.55975 4985 ft 185 kts 50°
2026-04-21 02:41 31.68841 130.57129 4977 ft 179 kts 50°
2026-04-21 02:42 31.69616 130.58228 4981 ft 174 kts 50°
2026-04-21 02:42 31.70388 130.59332 4957 ft 172 kts 50°
2026-04-21 02:42 31.71126 130.60378 4782 ft 165 kts 50°
2026-04-21 02:42 31.71858 130.61412 4611 ft 164 kts 50°
2026-04-21 02:43 31.72586 130.62442 4448 ft 160 kts 50°
2026-04-21 02:43 31.73280 130.63426 4326 ft 156 kts 50°
2026-04-21 02:43 31.73977 130.64416 4164 ft 156 kts 50°
2026-04-21 02:43 31.74666 130.65396 3994 ft 156 kts 51°
2026-04-21 02:44 31.75358 130.66379 3817 ft 157 kts 51°
2026-04-21 02:44 31.76055 130.67371 3626 ft 158 kts 51°
2026-04-21 02:44 31.76753 130.68367 3438 ft 159 kts 51°
2026-04-21 02:44 31.77456 130.69374 3245 ft 160 kts 51°
2026-04-21 02:45 31.78164 130.70390 3052 ft 160 kts 51°
2026-04-21 02:45 31.78878 130.71417 2855 ft 162 kts 51°
2026-04-21 02:45 31.79614 130.72423 2638 ft 164 kts 49°
2026-04-21 02:45 31.80538 130.73235 2339 ft 172 kts 25°
2026-04-21 02:46 31.81671 130.73300 2335 ft 154 kts 348°
2026-04-21 02:46 31.82641 130.72881 2212 ft 149 kts 345°
2026-04-21 02:46 31.83614 130.72476 2084 ft 148 kts 345°
2026-04-21 02:46 31.84585 130.72063 1870 ft 151 kts 342°
2026-04-21 02:47 31.85424 130.71307 1761 ft 154 kts 305°
2026-04-21 02:47 31.85582 130.70067 1736 ft 158 kts 258°
2026-04-21 02:47 31.84939 130.69061 1771 ft 159 kts 210°
2026-04-21 02:47 31.83862 130.69028 1631 ft 162 kts 150°
2026-04-21 02:48 31.83026 130.69833 1368 ft 153 kts 134°
2026-04-21 02:48 31.82249 130.70622 1077 ft 146 kts 142°
2026-04-21 02:48 31.81381 130.71237 916 ft 144 kts 148°
2026-04-21 02:48 31.80612 130.71756 886 ft 91 kts 150°
2026-04-21 02:49 31.80208 130.72029 882 ft 42 kts 153°
2026-04-21 02:49 31.80064 130.72118 878 ft 16 kts 166°
2026-04-21 02:49 31.80000 130.72043 879 ft 10 kts 241°
2026-04-21 02:49 31.79972 130.71983 880 ft 6 kts 242°
2026-04-21 02:50 31.79985 130.71953 881 ft 3 kts 327°
2026-04-21 02:50 31.80005 130.71939 881 ft 2 kts 331°
2026-04-21 02:50 31.80014 130.71933 881 ft 0 kts 331°
2026-04-21 02:51 31.80035 130.71919 882 ft 12 kts 332°
2026-04-21 02:51 31.80091 130.71845 884 ft 11 kts 234°
2026-04-21 02:52 31.80035 130.71788 883 ft 11 kts 165°
2026-04-21 02:52 31.79996 130.71806 883 ft 3 kts 203°
2026-04-21 02:52 31.79982 130.71783 882 ft 4 kts 239°
2026-04-21 02:52 31.79987 130.71770 882 ft 1 kts
2026-04-21 02:53 31.79988 130.71770 882 ft 0 kts 20°